Weather History for EHBK - November, 2012

Change the Weather History Date:

Sunday, November 4, 2012

  Actual Average Record
Temperature  
Mean Temperature 44 °F -  
Max Temperature 50 °F 46 °F 66 °F (2011)
Min Temperature 38 °F 36 °F 33 °F (1997)
Degree Days  
Heating Degree Days 21    
Moisture  
Dew Point 41 °F    
Average Humidity 84    
Maximum Humidity 100    
Minimum Humidity 67    
Precipitation  
Precipitation 0.08 in 0.09 in - ()
Sea Level Pressure  
Sea Level Pressure 29.50 in    
Wind  
Wind Speed 10 mph ()    
Max Wind Speed 20 mph    
Max Gust Speed -    
Visibility 6.7 miles    
Events Rain    
Averages and records for this station are not official NWS values.
T = Trace of Precipitation, MM = Missing Value Source: Averaged Metar Reports

Daily Weather History Graph

Daily Weather History Graph

Search for Another Location

Airport or City:

Trip Planner

Search our weather history database for the weather conditions in past years. The results will help you decide how hot, cold, wet, or windy it might be!

Date:

Astronomy

Nov. 04, 2012 Rise Set
Actual Time 7:34 AM CET 5:05 PM CET
Civil Twilight 6:59 AM CET 5:40 PM CET
Nautical Twilight 6:20 AM CET 6:19 PM CET
Astronomical Twilight 5:41 AM CET 6:58 PM CET
Moon 9:21 PM CET (11/4) 12:16 PM CET (11/4)
Length of Visible Light 10h 41m
Length of Day
9h 31m
Waning Gibbous, 74% of the Moon is Illuminated
Nov 4
Waning Gibbous
Nov 7
Last Quarter
Nov 13
New
Nov 20
First Quarter
Nov 28
Full

Hourly Weather History & Observations

Time (CET) Temp. Windchill Dew Point Humidity Pressure Visibility Wind Dir Wind Speed Gust Speed Precip Events Conditions
12:25 AM 39.2 °F 33.6 °F 37.4 °F 93% 29.62 in 6.2 mi SSW 8.1 mph - N/A   Unknown
12:55 AM 39.2 °F 33.0 °F 37.4 °F 93% 29.62 in 6.2 mi SW 9.2 mph - N/A   Unknown
1:00 AM 39 °F - 38 °F 97% 29.65 in 14 mi SSW 8.9 mph - -   Partly Cloudy
1:25 AM 39.2 °F 33.6 °F 39.2 °F 100% 29.62 in 6.2 mi SSW 8.1 mph - N/A   Unknown
1:55 AM 41.0 °F 34.7 °F 39.2 °F 93% 29.62 in 6.2 mi South 10.4 mph - N/A   Unknown
2:25 AM 41.0 °F 34.3 °F 39.2 °F 93% 29.62 in 6.2 mi South 11.5 mph - N/A   Unknown
2:55 AM 41.0 °F 34.7 °F 39.2 °F 93% 29.62 in 6.2 mi South 10.4 mph - N/A   Unknown
3:25 AM 41.0 °F 35.2 °F 39.2 °F 93% 29.62 in 6.2 mi South 9.2 mph - N/A   Unknown
3:55 AM 41.0 °F 35.2 °F 39.2 °F 93% 29.59 in 6.2 mi South 9.2 mph - N/A   Unknown
4:00 AM 41 °F - 39 °F 91% 29.63 in 22 mi South 11.2 mph - -   Overcast
4:25 AM 41.0 °F 35.2 °F 39.2 °F 93% 29.59 in 6.2 mi South 9.2 mph - N/A   Unknown
4:55 AM 41.0 °F 35.8 °F 39.2 °F 93% 29.59 in 6.2 mi South 8.1 mph - N/A   Unknown
5:25 AM 41.0 °F 35.2 °F 39.2 °F 93% 29.62 in 6.2 mi South 9.2 mph - N/A   Unknown
5:55 AM 41.0 °F 34.7 °F 39.2 °F 93% 29.62 in 6.2 mi South 10.4 mph - N/A   Unknown
6:25 AM 41.0 °F 35.8 °F 37.4 °F 87% 29.59 in 6.2 mi South 8.1 mph - N/A   Unknown
6:55 AM 41.0 °F 35.2 °F 37.4 °F 87% 29.59 in 6.2 mi SSE 9.2 mph - N/A   Unknown
7:00 AM 41 °F - 38 °F 85% 29.62 in 14 mi South 8.9 mph - -   Partly Cloudy
7:25 AM 41.0 °F 35.8 °F 37.4 °F 87% 29.59 in 6.2 mi South 8.1 mph - N/A   Unknown
7:55 AM 41.0 °F 35.8 °F 39.2 °F 93% 29.56 in 6.2 mi South 8.1 mph - N/A   Unknown
8:25 AM 42.8 °F 37.5 °F 39.2 °F 87% 29.56 in 6.2 mi SSE 9.2 mph - N/A   Unknown
8:55 AM 42.8 °F 38.0 °F 39.2 °F 87% 29.56 in 6.2 mi South 8.1 mph - N/A   Unknown
9:25 AM 44.6 °F 39.7 °F 41.0 °F 87% 29.56 in 6.2 mi South 9.2 mph - N/A   Unknown
9:55 AM 44.6 °F 40.7 °F 41.0 °F 87% 29.53 in 6.2 mi SSE 6.9 mph - N/A   Unknown
10:00 AM 45 °F - 41 °F 79% 29.55 in 17 mi SSE 6.7 mph - -   Overcast
10:25 AM 46.4 °F 42.9 °F 41.0 °F 81% 29.50 in 6.2 mi SSE 6.9 mph - N/A   Unknown
10:55 AM 48.2 °F - 42.8 °F 82% 29.50 in 6.2 mi South 10.4 mph - N/A   Unknown
11:25 AM 48.2 °F - 42.8 °F 82% 29.50 in 6.2 mi South 11.5 mph - N/A   Unknown
11:55 AM 50.0 °F - 42.8 °F 76% 29.47 in 6.2 mi SSE 11.5 mph - N/A   Unknown
12:25 PM 50.0 °F - 42.8 °F 76% 29.44 in 6.2 mi South 13.8 mph - N/A   Mostly Cloudy
12:55 PM 50.0 °F - 42.8 °F 76% 29.42 in 6.2 mi SSE 12.7 mph - N/A   Partly Cloudy
1:00 PM 50 °F - 42 °F 67% 29.43 in 28 mi SSE 13.4 mph - -   Partly Cloudy
1:25 PM 50.0 °F - 42.8 °F 76% 29.39 in 6.2 mi South 13.8 mph - N/A   Overcast
1:55 PM 50.0 °F - 42.8 °F 76% 29.39 in 6.2 mi South 15.0 mph - N/A Rain Light Rain
2:25 PM 50.0 °F - 46.4 °F 87% 29.39 in 6.2 mi South 12.7 mph - N/A Rain Light Rain Showers
2:55 PM 48.2 °F - 46.4 °F 93% 29.39 in 6.2 mi SSW 12.7 mph - N/A Rain Light Rain Showers
3:25 PM 50.0 °F - 48.2 °F 94% 29.39 in 6.2 mi SW 16.1 mph - N/A   Mostly Cloudy
3:55 PM 50.0 °F - 42.8 °F 76% 29.39 in 6.2 mi SW 19.6 mph - N/A   Mostly Cloudy
4:00 PM 49 °F - 43 °F 73% 29.40 in 28 mi SW 17.9 mph - - Rain Rain
4:25 PM 48.2 °F - 42.8 °F 82% 29.39 in 6.2 mi SW 17.3 mph - N/A   Scattered Clouds
4:55 PM 48.2 °F - 42.8 °F 82% 29.39 in 6.2 mi SW 16.1 mph - N/A   Unknown
5:25 PM 46.4 °F 40.1 °F 41.0 °F 81% 29.42 in 6.2 mi SSW 15.0 mph - N/A   Unknown
5:55 PM 46.4 °F 39.5 °F 41.0 °F 81% 29.42 in 6.2 mi SW 17.3 mph - N/A   Unknown
6:25 PM 44.6 °F 38.4 °F 41.0 °F 87% 29.42 in 6.2 mi SSW 12.7 mph - N/A   Unknown
6:55 PM 46.4 °F 40.4 °F 41.0 °F 81% 29.42 in 6.2 mi SSW 13.8 mph - N/A   Overcast
7:00 PM 46 °F - 42 °F 79% 29.45 in 28 mi SSW 15.7 mph - -   Partly Cloudy
7:25 PM 46.4 °F 39.5 °F 41.0 °F 81% 29.42 in 6.2 mi SSW 17.3 mph - N/A   Overcast
7:55 PM 46.4 °F 39.5 °F 41.0 °F 81% 29.42 in 6.2 mi SSW 17.3 mph - N/A   Overcast
8:25 PM 46.4 °F 39.8 °F 41.0 °F 81% 29.42 in 6.2 mi SSW 16.1 mph - N/A   Overcast
8:55 PM 46.4 °F 39.5 °F 39.2 °F 76% 29.42 in 6.2 mi SSW 17.3 mph - N/A   Mostly Cloudy
9:25 PM 46.4 °F 39.0 °F 41.0 °F 81% 29.44 in 6.2 mi SSW 19.6 mph - N/A   Overcast
9:55 PM 46.4 °F 39.0 °F 41.0 °F 81% 29.44 in 6.2 mi SSW 19.6 mph - N/A   Overcast
10:00 PM 46 °F - 40 °F 74% 29.47 in 28 mi SSW 20.1 mph - -   Overcast
10:25 PM 46.4 °F 39.0 °F 39.2 °F 76% 29.44 in 6.2 mi SSW 19.6 mph - N/A   Overcast
10:55 PM 46.4 °F 39.0 °F 39.2 °F 76% 29.44 in 6.2 mi SSW 19.6 mph - N/A   Mostly Cloudy
11:25 PM 44.6 °F 36.9 °F 39.2 °F 81% 29.44 in 6.2 mi SSW 18.4 mph - N/A   Scattered Clouds
11:55 PM 46.4 °F 39.2 °F 39.2 °F 76% 29.44 in 6.2 mi SSW 18.4 mph - N/A   Mostly Cloudy